Overview Statistics Trail Chart Weather Telemetry Raw packets
 

This is the latest recevied weather packets stored in our database for station/object W5ITZ. If no packets are shown the sender has not sent any weather packets the latest 10 day(s).

<< 97 98 99 100 101 102 103 >>
Time Temp. Humidity Pressure Rain* Wind** Luminosity Snow
1787496170 29.44° C 79% 1017.3 hPa 0 mm - 404 W/m² -
1787495864 28.89° C 81% 1017.2 hPa 0 mm - 444 W/m² -
1787495560 28.89° C 82% 1017 hPa 0 mm - 419 W/m² -
1787495255 28.89° C 82% 1017.1 hPa 0 mm - 399 W/m² -
1787494952 28.89° C 82% 1017 hPa 0 mm - 377 W/m² -
1787494651 28.89° C 84% 1017 hPa 0 mm - 357 W/m² -
1787494346 28.33° C 84% 1017.1 hPa 0 mm - 335 W/m² -
1787494042 28.33° C 85% 1017.1 hPa 0 mm - 318 W/m² -
1787493739 28.33° C 86% 1016.9 hPa 0 mm - 295 W/m² -
1787493438 28.33° C 88% 1016.8 hPa 0 mm - 276 W/m² -
1787493134 27.78° C 89% 1017.2 hPa 0 mm - 256 W/m² -
1787492829 27.78° C 90% 1016.8 hPa 0 mm - 239 W/m² -
1787492526 27.78° C 91% 1016.8 hPa 0 mm - 217 W/m² -
1787492221 27.22° C 93% 1016.9 hPa 0 mm - 200 W/m² -
1787491916 27.22° C 93% 1016.8 hPa 0 mm - 187 W/m² -
1787491611 27.22° C 94% 1016.7 hPa 0 mm - 164 W/m² -
1787491306 27.22° C 95% 1016.8 hPa 0 mm - 148 W/m² -
1787491002 26.67° C 95% 1016.8 hPa 0 mm - 118 W/m² -
1787490698 26.67° C 96% 1016.6 hPa 0 mm - 99 W/m² -
1787490397 26.67° C 96% 1016.4 hPa 0 mm - 82 W/m² -
1787490193 26.67° C 96% 1016.5 hPa 0 mm - 73 W/m² -
1787489791 26.67° C 96% 1016 hPa 0 mm - 66 W/m² -
1787489486 26.11° C 96% 1016 hPa 0 mm - 64 W/m² -
1787489182 26.11° C 96% 1016 hPa 0 mm - 57 W/m² -
1787488878 26.11° C 96% 1016.3 hPa 0 mm - 49 W/m² -

* Rain latest hour (hover to see other rain measurements)
** Current wind speed in m/s (hover to see current wind gust speed)